[[{"header":{"parameterUnit":"m.s-1","parameterCategory":1,"la1":30.2992,"la2":30.254,"lo1":-89.0895,"lo2":-89.0443,"dy":0.0025,"dx":0.0025,"nx":19,"ny":19,"refTime":"2026-03-26T03:00:00:Z","depth":0,"parameterNumber":2,"parameterNumberName":"U-component_of_WINDS"},"data":[0,0,0,-2.5196,-2.5197,-2.5227,-2.5227,-2.5289,-2.529,0,0,0,0,0,0,0,0,0,0,0,-2.5201,-2.5202,-2.5196,-2.5197,-2.5227,-2.5227,-2.5289,-2.529,0,0,0,0,0,0,0,0,0,0,0,-2.5201,-2.5202,-2.5203,-2.5197,-2.5227,-2.5227,-2.5289,-2.5258,0,0,0,0,0,0,0,0,0,0,-2.5225,-2.5242,-2.5202,-2.5203,-2.5198,-2.5227,-2.5227,-2.5256,-2.526,-2.5286,0,-2.5312,0,-2.5302,-2.5295,-2.5296,0,0,0,-2.5187,-2.5239,-2.5235,-2.5203,-2.5198,-2.5227,-2.5211,-2.5258,-2.5262,-2.5291,-2.5312,-2.5314,-2.5303,-2.5296,-2.5296,-2.548,-2.5481,0,0,-2.5185,-2.5214,-2.5232,-2.5239,-2.5235,-2.521,-2.5212,-2.526,-2.5285,-2.5312,-2.5315,-2.5304,-2.5296,-2.5297,-2.5478,-2.548,0,0,0,-2.5188,-2.5213,-2.5207,-2.5237,-2.524,-2.5211,-2.5213,-2.5283,-2.5279,-2.5315,-2.5305,-2.5297,-2.5298,-2.5477,-2.5479,-2.5573,0,0,0,-2.5186,-2.5214,-2.5207,-2.5225,-2.524,-2.5262,-2.5236,-2.5275,-2.528,-2.5304,-2.5297,-2.5299,-2.5475,-2.5478,-2.5567,-2.5613,0,0,0,-2.5195,-2.5215,-2.5224,-2.5226,-2.524,-2.526,-2.5258,-2.5276,-2.5274,-2.5296,-2.5299,-2.5474,-2.5478,-2.5562,-2.5604,-2.567,0,0,0,-2.5212,-2.5306,-2.5226,-2.5328,-2.524,-2.5318,-2.5258,-2.5315,-2.5345,-2.5297,-2.5476,-2.5479,-2.556,-2.5599,-2.5665,-2.5731,-2.5761,0,0,-2.5347,-2.5324,-2.5381,-2.531,-2.5411,-2.5312,-2.5426,-2.5426,-2.5402,-2.5456,-2.546,-2.5569,-2.5603,-2.5669,-2.592,-2.5944,0,0,0,-2.5434,-2.5476,-2.5496,-2.5526,-2.5529,-2.5536,-2.5516,-2.5517,-2.5561,-2.5435,-2.561,-2.5629,-2.5667,-2.5697,-2.5718,-2.5748,-2.5494,-2.5494,-2.5493,-2.5665,-2.5631,-2.5725,-2.5694,-2.5725,-2.5704,-2.5726,-2.5723,-2.5678,-2.5721,-2.5736,-2.5893,-2.5929,-2.5944,-2.5977,-2.5768,-2.5768,-2.5769,-2.5769,-2.586,-2.5915,-2.5855,-2.5925,-2.5889,-2.5947,-2.5933,-2.59,-2.5949,-2.5877,-2.5909,-2.5833,-2.5972,-2.5999,-2.5776,-2.5775,-2.5774,-2.5773,-2.5773,-2.6008,-2.6028,-2.6028,-2.607,-2.6106,-2.6073,-2.6124,-2.6089,-2.6056,-2.6087,-2.61,-2.6099,-2.6093,-2.6096,-2.6096,-2.6097,-2.6097,-2.6098,-2.6098,-2.6161,-2.6158,-2.6205,-2.6219,-2.6235,-2.6252,-2.6235,-2.625,-2.6257,-2.6228,-2.6228,-2.618,-2.5992,-2.5946,-2.6106,-2.6105,-2.6104,-2.6103,-2.6103,-2.6371,-2.6318,-2.6392,-2.6408,-2.6423,-2.6463,-2.6418,-2.6453,-2.646,-2.6487,-2.6434,-2.63,-2.6274,-2.6257,-2.6218,-2.644,-2.644,-2.644,-2.644,-2.6495,-2.6479,-2.6547,-2.6577,-2.6601,-2.6569,-2.6655,-2.6644,-2.6625,-2.6628,-2.6591,-2.6537,-2.6521,-2.6504,-2.6482,-2.6445,-2.672,-2.672,-2.672,-2.6623,-2.6608,-2.6687,-2.6668,-2.6677,-2.6687,-2.6768,-2.6804,-2.6771,-2.6731,-2.663,-2.6618,-2.653,-2.6503,-2.6459,-2.6426,-2.6358,0,0]},{"header":{"parameterUnit":"m.s-1","parameterCategory":1,"la1":30.2992,"la2":30.254,"lo1":-89.0895,"lo2":-89.0443,"dy":0.0025,"dx":0.0025,"nx":19,"ny":19,"refTime":"2026-03-26T03:00:00:Z","depth":0,"parameterNumber":3,"parameterNumberName":"V-component_of_WINDS"},"data":[0,0,0,0.3145,0.3145,0.3147,0.3147,0.3141,0.3141,0,0,0,0,0,0,0,0,0,0,0,0.3138,0.3138,0.3145,0.3145,0.3147,0.3147,0.3141,0.3141,0,0,0,0,0,0,0,0,0,0,0,0.3139,0.3138,0.3138,0.3145,0.3147,0.3147,0.3141,0.3143,0,0,0,0,0,0,0,0,0,0,0.3142,0.3131,0.3138,0.3138,0.3144,0.3147,0.3147,0.3143,0.3142,0.3136,0,0.3129,0,0.3135,0.314,0.314,0,0,0,0.3149,0.3131,0.3137,0.3138,0.3144,0.3147,0.3147,0.3143,0.3142,0.3136,0.3129,0.3129,0.3135,0.314,0.314,0.3092,0.3092,0,0,0.3148,0.3136,0.3137,0.3136,0.3135,0.3147,0.3147,0.3143,0.3134,0.3129,0.3129,0.3135,0.314,0.314,0.3093,0.3092,0,0,0,0.3145,0.3135,0.3141,0.3136,0.3137,0.3147,0.3147,0.3135,0.3138,0.3129,0.3135,0.314,0.314,0.3093,0.3093,0.306,0,0,0,0.3145,0.3134,0.3141,0.3133,0.3137,0.3136,0.3139,0.3138,0.3138,0.3135,0.314,0.3139,0.3094,0.3093,0.3062,0.3046,0,0,0,0.314,0.3133,0.3132,0.3133,0.3133,0.3136,0.3139,0.3138,0.3141,0.314,0.3139,0.3094,0.3093,0.3063,0.3049,0.303,0,0,0,0.3131,0.3101,0.3131,0.3101,0.3133,0.3116,0.3139,0.3127,0.3122,0.314,0.3094,0.3093,0.3064,0.305,0.3032,0.3011,0.3002,0,0,0.3086,0.3096,0.3079,0.3106,0.308,0.3117,0.3087,0.3094,0.3106,0.3096,0.3095,0.3061,0.3049,0.303,0.2954,0.2946,0,0,0,0.3061,0.3049,0.3045,0.304,0.3046,0.305,0.3064,0.3067,0.306,0.3098,0.305,0.3043,0.3033,0.3024,0.3017,0.3009,0.3088,0.3088,0.3088,0.2978,0.2996,0.297,0.2989,0.2984,0.3,0.2998,0.3005,0.3023,0.3012,0.3008,0.296,0.2949,0.2944,0.2936,0.3,0.3,0.3,0.3,0.2915,0.2901,0.2928,0.2913,0.2932,0.2919,0.2935,0.2948,0.294,0.2964,0.2955,0.2979,0.2935,0.2929,0.2997,0.2998,0.2998,0.2998,0.2999,0.2862,0.2859,0.2864,0.2861,0.2857,0.2877,0.2868,0.2886,0.2903,0.2895,0.2894,0.2895,0.2897,0.2894,0.2894,0.2893,0.2893,0.2893,0.2893,0.2805,0.2812,0.2802,0.2809,0.2809,0.2812,0.283,0.2831,0.2837,0.2851,0.2851,0.2871,0.2928,0.2942,0.289,0.2891,0.2891,0.2891,0.2892,0.2732,0.2752,0.2737,0.2738,0.2747,0.2743,0.2767,0.2769,0.2772,0.2768,0.279,0.283,0.284,0.2845,0.2857,0.2787,0.2787,0.2787,0.2787,0.2686,0.2695,0.2684,0.2685,0.2687,0.2709,0.2692,0.2707,0.2725,0.2729,0.2742,0.2759,0.2764,0.2771,0.2778,0.2789,0.2703,0.2703,0.2703,0.2643,0.2652,0.2634,0.2653,0.2663,0.2671,0.2657,0.2657,0.2682,0.27,0.2732,0.2736,0.2764,0.2772,0.2789,0.2799,0.2819,0,0]}]]